[[{"header":{"parameterUnit":"m.s-1","parameterCategory":1,"la1":30.2991,"la2":30.254,"lo1":-89.0895,"lo2":-89.0444,"dy":0.0017,"dx":0.0017,"nx":28,"ny":28,"refTime":"2023-07-20T21:00:00:Z","depth":0,"parameterNumber":2,"parameterNumberName":"U-component_of_WINDS"},"data":[0,0,0,0,0,0,0,0,0,0,0,0,0,0,0,0,0,0,0,0,0,0,0,0,0,0,0,0,0,0,0,0,0,0,0,0,0,0,0,0,0,0,0,0,0,0,0,0,0,0,0,0,0,0,0,0,0,0,0.4904,0.4906,0,0.5014,0.5016,0.5017,0.5068,0.5068,0.5068,0.5068,0.5179,0.5182,0.5185,0,0,0,0,0,0,0,0,0,0,0,0,0,0.4737,0.4739,0.4904,0.4906,0.4907,0.5014,0.5016,0.5017,0.5068,0.5068,0.5068,0.5068,0.5178,0.5182,0.5186,0,0,0,0,0,0,0,0,0,0,0,0,0,0.4824,0.474,0.4904,0.4946,0.495,0.5014,0.5016,0.5018,0.5068,0.5068,0.5068,0.5068,0.5177,0.5182,0.5186,0.5216,0,0,0.52,0.5202,0,0,0,0,0,0,0,0,0.4819,0.483,0.4938,0.4943,0.4948,0.5028,0.4997,0.5084,0.5068,0.5023,0.5068,0.5068,0.5129,0.5137,0.5158,0.5221,0.5226,0.52,0.5203,0.5205,0.5206,0,0,0,0,0,0,0,0.4813,0.4826,0.4948,0.494,0.4946,0.4958,0.497,0.5014,0.5075,0.5027,0.5031,0.5044,0.5132,0.5154,0.5161,0.5228,0.52,0.5204,0.5207,0.5209,0.5321,0.5321,0,0,0,0,0,0,0.48,0.482,0.4944,0.4951,0.4882,0.4961,0.4975,0.5002,0.5075,0.5086,0.5044,0.5046,0.5146,0.5156,0.5165,0.5206,0.5205,0.5209,0.5212,0.5321,0.5321,0.5321,0,0,0,0,0,0,0.4797,0.4811,0.494,0.4887,0.4904,0.4964,0.4994,0.5004,0.5027,0.5087,0.5098,0.5055,0.5146,0.5159,0.5203,0.521,0.5211,0.5215,0.532,0.5321,0.5321,0.5286,0,0,0,0,0,0,0.4792,0.4809,0.4822,0.4887,0.4907,0.4976,0.4995,0.5007,0.5034,0.5038,0.5101,0.5111,0.5147,0.5196,0.5208,0.5216,0.5219,0.532,0.5321,0.5321,0.5287,0.5285,0.5284,0,0,0,0,0,0.4786,0.4807,0.4822,0.4837,0.4924,0.4977,0.4988,0.5029,0.5035,0.5048,0.5087,0.5109,0.5207,0.52,0.5214,0.5224,0.532,0.532,0.5321,0.5287,0.5285,0.5284,0,0,0,0,0,0,0.4741,0.4817,0.4834,0.4878,0.492,0.4985,0.5003,0.5026,0.5068,0.5069,0.5118,0.5132,0.5172,0.5202,0.5193,0.5257,0.5266,0.5269,0.5235,0.5234,0.5232,0.5224,0.5223,0,0,0,0,0,0.4737,0.4774,0.4837,0.487,0.489,0.4943,0.4967,0.4995,0.5041,0.5059,0.5102,0.5145,0.5186,0.5211,0.5252,0.5291,0.5305,0.5305,0.5303,0.5301,0.5304,0.5327,0.5327,0.5323,0.5323,0.5323,0,0,0.4727,0.4773,0.4794,0.4862,0.4898,0.4935,0.4958,0.4996,0.5023,0.5065,0.511,0.5142,0.5194,0.5235,0.5256,0.5262,0.5308,0.5302,0.53,0.5304,0.5327,0.5327,0.5328,0.5324,0.5324,0.5323,0,0,0.4729,0.4768,0.4799,0.4835,0.489,0.4925,0.4932,0.4993,0.5017,0.5062,0.5094,0.5127,0.5196,0.5232,0.5259,0.5273,0.5296,0.5285,0.5277,0.5299,0.5299,0.53,0.5305,0.5306,0.5287,0.5287,0.5287,0,0.4711,0.4769,0.4812,0.4849,0.4877,0.4917,0.4949,0.4981,0.5046,0.5065,0.5071,0.5158,0.5196,0.5246,0.525,0.527,0.528,0.5279,0.5296,0.5297,0.5298,0.5303,0.5305,0.5286,0.5286,0.5286,0.5286,0,0.4743,0.4782,0.4801,0.4863,0.4894,0.4928,0.4976,0.5002,0.5026,0.506,0.5106,0.5152,0.5203,0.5217,0.5241,0.527,0.5273,0.5286,0.5296,0.5296,0.5302,0.5304,0.5283,0.5284,0.5284,0.5285,0,0,0.4721,0.4807,0.4813,0.4842,0.4905,0.4936,0.4971,0.5021,0.5042,0.5085,0.5116,0.5173,0.5186,0.5216,0.5245,0.5264,0.5273,0.5276,0.5278,0.5274,0.5308,0.5298,0.5299,0.5288,0.5288,0.5289,0.5304,0,0.4732,0.4798,0.4838,0.4887,0.4924,0.4962,0.4992,0.5034,0.5066,0.5101,0.5136,0.5176,0.519,0.5209,0.5229,0.5267,0.528,0.5267,0.5316,0.5318,0.5303,0.5303,0.5292,0.5304,0.5306,0.5307,0.5307,0,0.4755,0.4797,0.485,0.491,0.4926,0.4953,0.5002,0.5035,0.5083,0.5105,0.5139,0.5167,0.5205,0.5212,0.5264,0.5254,0.5277,0.5298,0.53,0.5307,0.5313,0.531,0.5309,0.5311,0.5311,0.5311,0.5311,0,0.4734,0.4804,0.4846,0.4869,0.4939,0.4957,0.4986,0.5034,0.5061,0.5103,0.5122,0.5167,0.5193,0.5227,0.5267,0.5268,0.5316,0.5326,0.5335,0.5334,0.5344,0.5343,0.5347,0.5358,0.5358,0.5357,0.5357,0,0.4742,0.4773,0.4837,0.4862,0.4898,0.4943,0.4977,0.5009,0.5051,0.5083,0.5118,0.5147,0.5198,0.5233,0.5264,0.5303,0.5314,0.5333,0.5341,0.533,0.5328,0.5346,0.5346,0.5358,0.5358,0.5358,0.5358,0,0.4725,0.4769,0.4817,0.4879,0.4895,0.4918,0.4971,0.4997,0.503,0.507,0.5082,0.5135,0.5178,0.5221,0.5279,0.53,0.5338,0.5349,0.5322,0.5327,0.5334,0.5333,0.5351,0.5355,0.5361,0.5361,0.5361,0,0.4728,0.4753,0.4818,0.4842,0.4871,0.4909,0.4938,0.4982,0.501,0.5066,0.5085,0.513,0.5169,0.5236,0.5279,0.5323,0.5336,0.5339,0.5342,0.5331,0.5336,0.5334,0.5337,0.5337,0.5337,0.5337,0.5337,0,0.4729,0.475,0.4789,0.4836,0.4869,0.4908,0.4949,0.4966,0.5018,0.5048,0.5092,0.5122,0.5181,0.5226,0.5275,0.5305,0.533,0.5335,0.534,0.5329,0.5313,0.5322,0.5319,0.5334,0.5335,0.5335,0.5335,0.5335,0.4723,0.4747,0.4796,0.4839,0.4874,0.4911,0.4938,0.4975,0.5013,0.5065,0.5089,0.5133,0.518,0.5248,0.5278,0.5313,0.532,0.5326,0.5328,0.5329,0.5327,0.5306,0.5322,0.5322,0.5322,0.5322,0.5322,0,0.4726,0.4759,0.4798,0.4854,0.4887,0.4907,0.4953,0.4979,0.5018,0.506,0.5097,0.5148,0.5192,0.5238,0.5284,0.5303,0.5315,0.5314,0.5313,0.532,0.5318,0.531,0.5303,0.5303,0.5303,0.5303,0.5303,0.5303,0.4731,0.4773,0.4799,0.4858,0.4891,0.4935,0.496,0.4993,0.5027,0.5082,0.5119,0.5149,0.5192,0.5241,0.5282,0.5294,0.531,0.5305,0.532,0.5318,0.532,0.5321,0.5313,0.5308,0.5308,0.5319,0.5319,0.5319]},{"header":{"parameterUnit":"m.s-1","parameterCategory":1,"la1":30.2991,"la2":30.254,"lo1":-89.0895,"lo2":-89.0444,"dy":0.0017,"dx":0.0017,"nx":28,"ny":28,"refTime":"2023-07-20T21:00:00:Z","depth":0,"parameterNumber":3,"parameterNumberName":"V-component_of_WINDS"},"data":[0,0,0,0,0,0,0,0,0,0,0,0,0,0,0,0,0,0,0,0,0,0,0,0,0,0,0,0,0,0,0,0,0,0,0,0,0,0,0,0,0,0,0,0,0,0,0,0,0,0,0,0,0,0,0,0,0,0,5.0743,5.0742,0,5.0675,5.0674,5.0673,5.0585,5.0583,5.0582,5.058,5.0507,5.0506,5.0506,0,0,0,0,0,0,0,0,0,0,0,0,0,5.0795,5.0795,5.0743,5.0742,5.0741,5.0675,5.0674,5.0673,5.0585,5.0583,5.0581,5.058,5.0507,5.0506,5.0506,0,0,0,0,0,0,0,0,0,0,0,0,0,5.0754,5.0794,5.0743,5.069,5.0684,5.0675,5.0674,5.0673,5.0585,5.0583,5.0581,5.0579,5.0507,5.0506,5.0505,5.0542,0,0,5.0503,5.0502,0,0,0,0,0,0,0,0,5.0757,5.0752,5.0698,5.0693,5.0687,5.0636,5.0665,5.0629,5.0586,5.0623,5.058,5.0578,5.0551,5.0547,5.0538,5.0539,5.0536,5.0502,5.0502,5.0501,5.0501,0,0,0,0,0,0,0,5.0759,5.0755,5.0716,5.0698,5.0691,5.0668,5.066,5.0658,5.06,5.0619,5.0613,5.0606,5.0548,5.0539,5.0536,5.0535,5.0502,5.0502,5.0501,5.0501,5.0562,5.0564,0,0,0,0,0,0,5.0771,5.0758,5.0718,5.0714,5.0717,5.0669,5.066,5.0655,5.0599,5.0589,5.0608,5.0602,5.0542,5.0537,5.0533,5.0573,5.0501,5.0501,5.05,5.056,5.0563,5.0565,0,0,0,0,0,0,5.0772,5.0768,5.0721,5.0734,5.0726,5.067,5.0665,5.0654,5.0646,5.0591,5.058,5.061,5.054,5.0534,5.0541,5.0569,5.05,5.0499,5.0557,5.0561,5.0564,5.0652,0,0,0,0,0,0,5.0774,5.0769,5.0783,5.0735,5.0726,5.0731,5.0667,5.0654,5.0645,5.0637,5.059,5.058,5.0538,5.0543,5.054,5.0566,5.0499,5.0554,5.0559,5.0563,5.0647,5.0658,5.0668,0,0,0,0,0,5.0776,5.081,5.0784,5.078,5.0742,5.0733,5.0727,5.0679,5.0648,5.0661,5.0626,5.0582,5.0567,5.0544,5.054,5.0567,5.0552,5.0558,5.0562,5.0642,5.0656,5.0668,0,0,0,0,0,0,5.0861,5.0803,5.0773,5.0793,5.0769,5.0718,5.0733,5.0696,5.0679,5.0672,5.0611,5.0602,5.0616,5.0592,5.0568,5.06,5.0553,5.0557,5.0615,5.0628,5.0638,5.0644,5.0498,0,0,0,0,0,5.0883,5.0881,5.0829,5.0851,5.0841,5.0789,5.0783,5.0748,5.072,5.0709,5.0674,5.0648,5.0637,5.0631,5.0618,5.0643,5.0631,5.0659,5.067,5.0679,5.0684,5.0695,5.0707,5.0581,5.0581,5.0581,0,0,5.0926,5.0894,5.0896,5.0867,5.0844,5.0843,5.0781,5.0782,5.078,5.0709,5.0713,5.0687,5.0654,5.067,5.0675,5.065,5.0716,5.0686,5.0693,5.0692,5.0701,5.0713,5.0724,5.0585,5.0584,5.0583,0,0,5.1004,5.098,5.0996,5.0975,5.0941,5.0907,5.0911,5.0867,5.0847,5.0851,5.0798,5.0794,5.0777,5.0755,5.0742,5.0814,5.0773,5.0811,5.0867,5.0879,5.0889,5.0897,5.0923,5.0933,5.0816,5.0816,5.0816,0,5.1062,5.1059,5.1008,5.1013,5.1002,5.0939,5.0954,5.0936,5.09,5.0893,5.0866,5.0844,5.0817,5.0827,5.0845,5.0837,5.0839,5.0816,5.0892,5.09,5.0907,5.093,5.094,5.0821,5.082,5.082,5.0819,0,5.1131,5.113,5.1147,5.1115,5.1106,5.1116,5.1066,5.1063,5.1029,5.0998,5.1003,5.0969,5.0948,5.0948,5.0914,5.0954,5.0939,5.0903,5.0855,5.0925,5.0946,5.0954,5.0828,5.0826,5.0825,5.0823,0,0,5.126,5.1202,5.1208,5.1194,5.1153,5.115,5.1158,5.1139,5.1137,5.1115,5.1119,5.1106,5.1073,5.1058,5.1022,5.1032,5.1092,5.0994,5.0993,5.1014,5.1133,5.116,5.1171,5.1065,5.1066,5.1067,5.1135,0,5.133,5.134,5.1296,5.1317,5.1315,5.1256,5.1262,5.1238,5.1209,5.1202,5.1169,5.1162,5.1119,5.1109,5.1117,5.1083,5.1115,5.1077,5.1067,5.1067,5.1077,5.1182,5.1211,5.1276,5.1143,5.1145,5.1146,0,5.1413,5.1397,5.1419,5.1378,5.1375,5.1382,5.1361,5.1356,5.1327,5.1305,5.129,5.1248,5.1252,5.1207,5.121,5.1186,5.1179,5.1162,5.1163,5.1159,5.111,5.1181,5.1296,5.1306,5.1158,5.1157,5.1156,0,5.1505,5.1488,5.1499,5.1488,5.1441,5.1447,5.1427,5.1396,5.1388,5.137,5.1363,5.1346,5.1336,5.1322,5.1277,5.1249,5.1286,5.1237,5.1267,5.1268,5.1277,5.1277,5.1392,5.1274,5.1274,5.1274,5.1273,0,5.1588,5.1603,5.154,5.1546,5.1562,5.1511,5.1527,5.1501,5.1475,5.1475,5.1422,5.1423,5.1364,5.1358,5.1322,5.1331,5.1326,5.1308,5.1298,5.1313,5.1315,5.1307,5.1301,5.1276,5.1275,5.1275,5.1275,0,5.1692,5.1651,5.1658,5.1614,5.1603,5.1616,5.1577,5.1581,5.155,5.155,5.1548,5.1498,5.1488,5.1442,5.1421,5.1398,5.1418,5.1399,5.1428,5.1422,5.1455,5.1452,5.1568,5.1581,5.1455,5.1457,5.1458,0,5.1748,5.1758,5.1715,5.1712,5.1695,5.1691,5.1683,5.1633,5.1626,5.1595,5.1602,5.1589,5.1576,5.1563,5.1524,5.1508,5.1488,5.153,5.1485,5.1499,5.1488,5.1488,5.1489,5.1539,5.1541,5.1542,5.1544,0,5.185,5.183,5.182,5.1804,5.1796,5.1781,5.1762,5.1762,5.1707,5.1702,5.1693,5.1683,5.1662,5.165,5.1627,5.1606,5.1565,5.1558,5.1564,5.1578,5.1595,5.1586,5.1454,5.1555,5.1554,5.1553,5.1553,5.1552,5.1931,5.1938,5.191,5.1901,5.1882,5.1866,5.1868,5.1838,5.1829,5.181,5.1781,5.1775,5.1746,5.1712,5.1694,5.1688,5.1665,5.1674,5.1676,5.1679,5.1687,5.1597,5.1684,5.1684,5.1683,5.1683,5.1683,0,5.2031,5.201,5.2003,5.1979,5.1973,5.1937,5.1915,5.1912,5.1908,5.1885,5.1873,5.1863,5.185,5.1812,5.1795,5.1798,5.1779,5.1795,5.1794,5.179,5.1708,5.1704,5.1811,5.1811,5.1811,5.1811,5.1811,5.1811,5.2082,5.2092,5.2068,5.2069,5.2047,5.2042,5.2033,5.2017,5.1999,5.199,5.198,5.1955,5.1926,5.1907,5.1894,5.1883,5.1879,5.1901,5.1884,5.1808,5.1796,5.1784,5.178,5.1901,5.1901,5.1966,5.1967,5.1967]}]]